TimeEDT,TemperatureF,Dew PointF,Humidity,Sea Level PressureIn,VisibilityMPH,Wind Direction,Wind SpeedMPH,Gust SpeedMPH,PrecipitationIn,Events,Conditions,WindDirDegrees,DateUTC
12:14 AM,65.5,65.1,99,29.88,7.0,South,4.6,-,N/A,Rain,Light Rain,170,2013-09-12 04:14:00
12:35 AM,65.5,65.1,99,29.87,7.0,Calm,Calm,-,N/A,,Light Drizzle,0,2013-09-12 04:35:00
12:55 AM,65.3,64.8,98,29.87,7.0,SSW,3.5,-,N/A,Rain,Light Rain,210,2013-09-12 04:55:00
1:15 AM,64.6,64.4,99,29.85,5.0,Calm,Calm,-,N/A,Rain,Light Rain,0,2013-09-12 05:15:00
1:35 AM,64.0,63.7,99,29.85,7.0,SSW,4.6,-,N/A,,Overcast,210,2013-09-12 05:35:00
1:55 AM,63.5,63.1,99,29.84,5.0,SSW,3.5,-,N/A,,Overcast,210,2013-09-12 05:55:00
2:15 AM,63.1,62.8,99,29.85,7.0,Calm,Calm,-,N/A,,Mostly Cloudy,0,2013-09-12 06:15:00
2:35 AM,63.1,62.6,98,29.84,10.0,WSW,4.6,-,N/A,Rain,Rain,250,2013-09-12 06:35:00
2:55 AM,63.0,61.9,96,29.84,10.0,WSW,4.6,-,N/A,,Mostly Cloudy,250,2013-09-12 06:55:00
3:15 AM,63.3,62.6,97,29.84,10.0,West,4.6,-,N/A,,Mostly Cloudy,280,2013-09-12 07:15:00
3:35 AM,63.7,62.8,97,29.84,10.0,NW,5.8,-,N/A,,Overcast,310,2013-09-12 07:35:00
3:55 AM,63.5,62.2,96,29.84,10.0,WNW,4.6,-,N/A,,Overcast,290,2013-09-12 07:55:00
4:15 AM,63.5,62.1,95,29.84,10.0,WNW,4.6,-,N/A,,Overcast,300,2013-09-12 08:15:00
4:35 AM,63.5,62.1,95,29.84,10.0,WNW,4.6,-,N/A,,Overcast,300,2013-09-12 08:35:00
4:55 AM,63.1,61.9,96,29.84,10.0,WNW,6.9,-,N/A,,Overcast,300,2013-09-12 08:55:00
5:15 AM,62.8,61.0,94,29.84,10.0,NW,4.6,-,N/A,,Mostly Cloudy,310,2013-09-12 09:15:00
5:35 AM,61.9,60.1,94,29.84,10.0,NW,8.1,-,N/A,,Mostly Cloudy,310,2013-09-12 09:35:00
5:55 AM,61.9,59.5,92,29.85,10.0,NW,8.1,17.3,N/A,,Overcast,310,2013-09-12 09:55:00
6:15 AM,61.7,59.4,92,29.85,10.0,WNW,4.6,-,N/A,,Overcast,300,2013-09-12 10:15:00
6:34 AM,61.5,59.2,92,29.85,10.0,WNW,5.8,-,N/A,,Overcast,290,2013-09-12 10:34:00
6:55 AM,61.0,59.0,93,29.86,10.0,WNW,6.9,-,N/A,,Overcast,300,2013-09-12 10:55:00
7:14 AM,61.2,58.3,90,29.87,10.0,NW,8.1,-,N/A,,Overcast,310,2013-09-12 11:14:00
7:35 AM,61.2,58.3,90,29.87,10.0,NW,4.6,-,N/A,,Overcast,310,2013-09-12 11:35:00
7:55 AM,61.2,58.3,90,29.88,10.0,WNW,9.2,-,N/A,,Overcast,300,2013-09-12 11:55:00
8:15 AM,61.3,57.7,88,29.88,10.0,WNW,5.8,-,N/A,,Mostly Cloudy,300,2013-09-12 12:15:00
8:35 AM,61.7,57.6,86,29.88,10.0,NW,5.8,-,N/A,,Scattered Clouds,310,2013-09-12 12:35:00
8:55 AM,61.7,57.6,86,29.89,10.0,NW,8.1,-,N/A,,Mostly Cloudy,310,2013-09-12 12:55:00
9:15 AM,62.1,57.7,86,29.89,10.0,NW,5.8,-,N/A,,Mostly Cloudy,310,2013-09-12 13:15:00
9:35 AM,62.6,57.7,84,29.89,10.0,WNW,8.1,-,N/A,,Scattered Clouds,300,2013-09-12 13:35:00
9:55 AM,63.7,57.6,80,29.89,10.0,WNW,8.1,-,N/A,,Mostly Cloudy,290,2013-09-12 13:55:00
10:15 AM,64.8,55.9,73,29.89,10.0,WNW,6.9,-,N/A,,Mostly Cloudy,300,2013-09-12 14:15:00
10:35 AM,64.0,54.3,71,29.90,10.0,WNW,9.2,19.6,N/A,,Scattered Clouds,290,2013-09-12 14:35:00
10:55 AM,63.5,51.8,66,29.90,10.0,WNW,12.7,20.7,N/A,,Scattered Clouds,290,2013-09-12 14:55:00
11:15 AM,63.7,52.3,67,29.90,10.0,WNW,10.4,17.3,N/A,,Clear,290,2013-09-12 15:15:00
11:35 AM,63.5,53.2,69,29.90,10.0,WNW,6.9,18.4,N/A,,Scattered Clouds,290,2013-09-12 15:35:00
11:55 AM,64.4,54.0,69,29.90,10.0,WNW,11.5,17.3,N/A,,Mostly Cloudy,300,2013-09-12 15:55:00
12:15 PM,63.9,53.2,68,29.91,10.0,WNW,13.8,21.9,N/A,,Mostly Cloudy,290,2013-09-12 16:15:00
12:34 PM,61.9,53.1,73,29.91,10.0,WNW,11.5,19.6,N/A,,Overcast,300,2013-09-12 16:34:00
12:55 PM,61.9,53.1,73,29.92,10.0,WNW,9.2,19.6,N/A,,Overcast,300,2013-09-12 16:55:00
1:15 PM,63.5,53.4,70,29.92,10.0,WNW,10.4,21.9,N/A,,Mostly Cloudy,290,2013-09-12 17:15:00
1:35 PM,63.1,53.6,71,29.92,10.0,NW,9.2,20.7,N/A,,Overcast,310,2013-09-12 17:35:00
1:55 PM,63.5,53.8,71,29.92,10.0,NW,9.2,18.4,N/A,,Overcast,310,2013-09-12 17:55:00
2:15 PM,63.9,53.6,69,29.92,10.0,NW,10.4,24.2,N/A,,Overcast,320,2013-09-12 18:15:00
2:35 PM,62.6,53.4,72,29.93,10.0,WNW,9.2,21.9,N/A,,Overcast,300,2013-09-12 18:35:00
2:55 PM,63.0,52.7,69,29.93,10.0,WNW,11.5,18.4,N/A,,Overcast,290,2013-09-12 18:55:00
3:15 PM,62.2,52.9,71,29.93,10.0,WNW,10.4,19.6,N/A,,Overcast,290,2013-09-12 19:15:00
3:35 PM,62.1,51.8,69,29.93,10.0,NW,9.2,-,N/A,,Overcast,310,2013-09-12 19:35:00
3:55 PM,60.3,50.2,69,29.93,10.0,NW,6.9,-,N/A,,Overcast,310,2013-09-12 19:55:00
4:15 PM,60.8,49.5,66,29.93,10.0,NW,11.5,17.3,N/A,,Overcast,310,2013-09-12 20:15:00
4:35 PM,61.7,50.2,66,29.93,10.0,NNW,9.2,19.6,N/A,,Overcast,330,2013-09-12 20:35:00
4:55 PM,60.3,49.6,68,29.93,10.0,NW,10.4,21.9,N/A,,Overcast,320,2013-09-12 20:55:00
5:15 PM,59.9,49.5,68,29.93,10.0,NW,5.8,18.4,N/A,,Overcast,320,2013-09-12 21:15:00
5:35 PM,59.9,49.6,69,29.93,10.0,NW,6.9,16.1,N/A,,Overcast,320,2013-09-12 21:35:00
5:55 PM,59.0,49.3,70,29.93,10.0,NW,8.1,-,N/A,,Overcast,320,2013-09-12 21:55:00
6:15 PM,58.6,48.6,69,29.94,10.0,NW,10.4,18.4,N/A,,Overcast,320,2013-09-12 22:15:00
6:35 PM,57.9,48.2,70,29.95,10.0,NW,11.5,19.6,N/A,,Overcast,320,2013-09-12 22:35:00
6:55 PM,57.6,48.0,70,29.95,10.0,NW,10.4,21.9,N/A,,Overcast,320,2013-09-12 22:55:00
7:15 PM,56.8,47.8,72,29.96,10.0,NW,9.2,19.6,N/A,,Overcast,320,2013-09-12 23:15:00
7:34 PM,56.7,47.5,71,29.96,10.0,NW,11.5,17.3,N/A,,Overcast,310,2013-09-12 23:34:00
7:55 PM,56.5,48.2,74,29.96,10.0,NW,4.6,-,N/A,,Overcast,320,2013-09-12 23:55:00
8:15 PM,56.7,47.1,70,29.97,10.0,North,10.4,-,N/A,,Overcast,360,2013-09-13 00:15:00
8:35 PM,56.3,46.6,70,29.98,10.0,NNW,11.5,16.1,N/A,,Overcast,340,2013-09-13 00:35:00
8:55 PM,54.9,45.1,70,29.99,10.0,North,11.5,20.7,N/A,,Overcast,360,2013-09-13 00:55:00
9:15 PM,54.5,45.0,70,30.00,10.0,North,11.5,18.4,N/A,,Overcast,360,2013-09-13 01:15:00
9:35 PM,54.7,44.1,67,30.00,10.0,North,13.8,18.4,N/A,,Overcast,360,2013-09-13 01:35:00
9:55 PM,54.3,43.2,66,30.01,10.0,North,11.5,21.9,N/A,,Overcast,360,2013-09-13 01:55:00
10:15 PM,53.8,43.7,69,30.01,10.0,North,15.0,23.0,N/A,,Overcast,360,2013-09-13 02:15:00
10:35 PM,52.9,43.7,71,30.02,10.0,North,11.5,20.7,N/A,,Overcast,360,2013-09-13 02:35:00
10:55 PM,52.0,43.7,73,30.03,10.0,North,11.5,20.7,N/A,,Overcast,350,2013-09-13 02:55:00
11:15 PM,51.1,43.0,74,30.03,10.0,North,9.2,20.7,N/A,,Overcast,10,2013-09-13 03:15:00
11:35 PM,50.4,43.2,76,30.03,10.0,North,9.2,16.1,N/A,,Mostly Cloudy,360,2013-09-13 03:35:00
11:55 PM,50.5,43.2,76,30.04,10.0,North,8.1,16.1,N/A,,Mostly Cloudy,360,2013-09-13 03:55:00